Weather History for Kokomo, IN

Change the Weather History Date:

Thursday, January 3, 2013

  Actual Average (KGUS) Record (KGUS)
Temperature  
Mean Temperature 20 °F -  
Max Temperature 28 °F 32 °F 57 °F (1997)
Min Temperature 12 °F 21 °F -11 °F (2014)
Degree Days  
Heating Degree Days 45    
Moisture  
Dew Point 15 °F    
Average Humidity 75    
Maximum Humidity 86    
Minimum Humidity 53    
Precipitation  
Precipitation 0.00 in - - ()
Sea Level Pressure  
Sea Level Pressure 30.20 in    
Wind  
Wind Speed 12 mph (WSW)    
Max Wind Speed 22 mph    
Max Gust Speed 26 mph    
Visibility 10 miles    
Events      
Averages and records for this station are not official NWS values.
T = Trace of Precipitation, MM = Missing Value Source: NWS Daily Summary

Daily Weather History Graph

Daily Weather History Graph

Search for Another Location

Airport:

Trip Planner

Search our weather history database for the weather conditions in past years. The results will help you decide how hot, cold, wet, or windy it might be!

Date:

Astronomy

Jan. 03, 2013 Rise Set
Actual Time 7:07 AM CST 4:30 PM CST
Civil Twilight 6:37 AM CST 5:00 PM CST
Nautical Twilight 6:03 AM CST 5:34 PM CST
Astronomical Twilight 5:30 AM CST 6:08 PM CST
Moon 11:06 PM CST (1/3) 10:17 AM CST (1/3)
Length of Visible Light 10h 23m
Length of Day
9h 22m
Waning Gibbous, 65% of the Moon is Illuminated
Jan 3
Waning Gibbous
Jan 4
Last Quarter
Jan 11
New
Jan 18
First Quarter
Jan 26
Full

Hourly Weather History & Observations

Time (CST) Temp. Windchill Dew Point Humidity Pressure Visibility Wind Dir Wind Speed Gust Speed Precip Events Conditions
12:15 AM 14.0 °F 2.0 °F 6.8 °F 73% 30.16 in 10.0 mi SSW 9.2 mph - N/A   Clear
12:35 AM 15.8 °F 3.4 °F 6.8 °F 68% 30.16 in 10.0 mi SSW 10.4 mph - N/A   Clear
12:55 AM 14.0 °F 2.9 °F 6.8 °F 73% 30.16 in 10.0 mi SSW 8.1 mph - N/A   Clear
1:15 AM 14.0 °F 2.0 °F 6.8 °F 73% 30.16 in 10.0 mi SW 9.2 mph - N/A   Clear
1:35 AM 12.2 °F 0.7 °F 5.0 °F 73% 30.15 in 10.0 mi SW 8.1 mph - N/A   Clear
1:55 AM 15.8 °F 3.4 °F 3.2 °F 58% 30.16 in 10.0 mi SW 10.4 mph - N/A   Clear
2:15 AM 17.6 °F 5.0 °F 3.2 °F 53% 30.16 in 10.0 mi SW 11.5 mph - N/A   Clear
2:35 AM 17.6 °F 6.4 °F 3.2 °F 53% 30.16 in 10.0 mi SW 9.2 mph - N/A   Clear
2:55 AM 15.8 °F 2.7 °F 3.2 °F 58% 30.16 in 10.0 mi SW 11.5 mph - N/A   Clear
3:15 AM 15.8 °F 2.7 °F 3.2 °F 58% 30.15 in 10.0 mi SW 11.5 mph - N/A   Clear
3:35 AM 17.6 °F 5.7 °F 3.2 °F 53% 30.15 in 10.0 mi SW 10.4 mph - N/A   Clear
3:55 AM 17.6 °F 5.0 °F 3.2 °F 53% 30.15 in 10.0 mi SW 11.5 mph - N/A   Mostly Cloudy
4:15 AM 17.6 °F 4.3 °F 5.0 °F 58% 30.15 in 10.0 mi SW 12.7 mph - N/A   Overcast
4:35 AM 19.4 °F 6.0 °F 6.8 °F 58% 30.15 in 10.0 mi WSW 13.8 mph - N/A   Overcast
4:55 AM 19.4 °F 5.5 °F 6.8 °F 58% 30.15 in 10.0 mi SW 15.0 mph - N/A   Overcast
5:15 AM 19.4 °F 6.0 °F 6.8 °F 58% 30.16 in 10.0 mi WSW 13.8 mph - N/A   Overcast
5:35 AM 19.4 °F 5.5 °F 8.6 °F 63% 30.17 in 10.0 mi WSW 15.0 mph - N/A   Overcast
5:55 AM 19.4 °F 6.6 °F 10.4 °F 68% 30.17 in 10.0 mi WSW 12.7 mph - N/A   Overcast
6:15 AM 19.4 °F 7.2 °F 10.4 °F 68% 30.17 in 10.0 mi WSW 11.5 mph - N/A   Overcast
6:35 AM 19.4 °F 7.2 °F 10.4 °F 68% 30.17 in 10.0 mi WSW 11.5 mph - N/A   Overcast
6:55 AM 19.4 °F 8.6 °F 10.4 °F 68% 30.17 in 10.0 mi WSW 9.2 mph - N/A   Overcast
7:35 AM 19.4 °F 7.2 °F 12.2 °F 74% 30.17 in 10.0 mi SW 11.5 mph - N/A   Overcast
7:55 AM 19.4 °F 7.9 °F 10.4 °F 68% 30.17 in 10.0 mi WSW 10.4 mph - N/A   Mostly Cloudy
8:15 AM 19.4 °F 7.9 °F 12.2 °F 74% 30.17 in 10.0 mi WSW 10.4 mph - N/A   Clear
8:35 AM 19.4 °F 7.9 °F 12.2 °F 74% 30.18 in 10.0 mi WSW 10.4 mph - N/A   Mostly Cloudy
8:55 AM 21.2 °F 9.5 °F 14.0 °F 74% 30.18 in 10.0 mi SW 11.5 mph - N/A   Overcast
9:35 AM 21.2 °F 10.1 °F 15.8 °F 80% 30.20 in 10.0 mi WSW 10.4 mph - N/A   Overcast
9:55 AM 23.0 °F 11.1 °F 15.8 °F 74% 30.20 in 10.0 mi WSW 12.7 mph - N/A   Overcast
10:15 AM 24.8 °F 14.0 °F 17.6 °F 74% 30.20 in 10.0 mi WSW 11.5 mph - N/A   Overcast
10:35 AM 24.8 °F 13.4 °F 17.6 °F 74% 30.20 in 10.0 mi WSW 12.7 mph - N/A   Overcast
10:55 AM 24.8 °F 12.9 °F 19.4 °F 80% 30.20 in 9.0 mi WSW 13.8 mph - N/A   Overcast
11:15 AM 26.6 °F 15.7 °F 19.4 °F 74% 30.19 in 8.0 mi WSW 12.7 mph - N/A   Overcast
11:35 AM 26.6 °F 15.7 °F 21.2 °F 80% 30.18 in 8.0 mi SW 12.7 mph - N/A   Mostly Cloudy
11:55 AM 26.6 °F 15.2 °F 21.2 °F 80% 30.19 in 8.0 mi West 13.8 mph - N/A   Overcast
12:15 PM 28.4 °F 18.0 °F 21.2 °F 74% 30.18 in 10.0 mi West 12.7 mph - N/A   Overcast
12:35 PM 28.4 °F 17.5 °F 23.0 °F 80% 30.18 in 9.0 mi West 13.8 mph - N/A   Overcast
12:55 PM 28.4 °F 17.5 °F 24.8 °F 86% 30.18 in 8.0 mi West 13.8 mph 19.6 mph N/A   Overcast
1:15 PM 28.4 °F 17.0 °F 23.0 °F 80% 30.18 in 7.0 mi West 15.0 mph 20.7 mph N/A   Overcast
1:35 PM 28.4 °F 18.0 °F 23.0 °F 80% 30.18 in 8.0 mi West 12.7 mph - N/A   Overcast
1:55 PM 28.4 °F 17.5 °F 23.0 °F 80% 30.18 in 9.0 mi West 13.8 mph 19.6 mph N/A   Overcast
2:15 PM 28.4 °F 17.0 °F 23.0 °F 80% 30.19 in 9.0 mi West 15.0 mph - N/A   Overcast
2:35 PM 28.4 °F 16.6 °F 24.8 °F 86% 30.20 in 9.0 mi WSW 16.1 mph - N/A   Overcast
2:55 PM 28.4 °F 16.2 °F 24.8 °F 86% 30.20 in 9.0 mi WSW 17.3 mph 23.0 mph N/A   Overcast
3:15 PM 28.4 °F 16.6 °F 24.8 °F 86% 30.21 in 9.0 mi West 16.1 mph - N/A   Overcast
3:35 PM 28.4 °F 16.6 °F 24.8 °F 86% 30.21 in 10.0 mi West 16.1 mph - N/A   Overcast
3:55 PM 28.4 °F 17.0 °F 23.0 °F 80% 30.22 in 10.0 mi West 15.0 mph - N/A   Overcast
4:15 PM 28.4 °F 17.0 °F 23.0 °F 80% 30.22 in 9.0 mi West 15.0 mph - N/A   Overcast
4:35 PM 28.4 °F 15.8 °F 23.0 °F 80% 30.23 in 10.0 mi West 18.4 mph 24.2 mph N/A   Overcast
4:55 PM 28.4 °F 17.0 °F 23.0 °F 80% 30.23 in 10.0 mi West 15.0 mph - N/A   Overcast
5:15 PM 28.4 °F 16.6 °F 23.0 °F 80% 30.23 in 10.0 mi West 16.1 mph - N/A   Overcast
5:35 PM 28.4 °F 16.6 °F 24.8 °F 86% 30.23 in 10.0 mi West 16.1 mph 21.9 mph N/A   Overcast
5:55 PM 28.4 °F 17.5 °F 24.8 °F 86% 30.24 in 10.0 mi West 13.8 mph - N/A   Overcast
6:15 PM 28.4 °F 18.0 °F 24.8 °F 86% 30.24 in 10.0 mi West 12.7 mph - N/A   Overcast
6:35 PM 28.4 °F 14.7 °F 24.8 °F 86% 30.24 in 10.0 mi West 21.9 mph 26.5 mph N/A   Overcast
6:55 PM 26.6 °F 14.3 °F 21.2 °F 80% 30.25 in 10.0 mi West 16.1 mph - N/A   Partly Cloudy
7:15 PM 26.6 °F 14.3 °F 21.2 °F 80% 30.26 in 10.0 mi West 16.1 mph - N/A   Clear
7:35 PM 26.6 °F 14.7 °F 19.4 °F 74% 30.26 in 10.0 mi West 15.0 mph - N/A   Clear
7:55 PM 24.8 °F 12.4 °F 17.6 °F 74% 30.26 in 10.0 mi West 15.0 mph - N/A   Clear
8:15 PM 24.8 °F 13.4 °F 17.6 °F 74% 30.26 in 10.0 mi West 12.7 mph - N/A   Clear
8:35 PM 23.0 °F 11.1 °F 17.6 °F 80% 30.27 in 10.0 mi West 12.7 mph - N/A   Clear
8:55 PM 23.0 °F 11.1 °F 17.6 °F 80% 30.27 in 10.0 mi West 12.7 mph - N/A   Clear
9:15 PM 21.2 °F 10.1 °F 15.8 °F 80% 30.27 in 10.0 mi West 10.4 mph - N/A   Clear
9:35 PM 21.2 °F 10.1 °F 15.8 °F 80% 30.27 in 10.0 mi West 10.4 mph - N/A   Clear
9:55 PM 21.2 °F 10.1 °F 15.8 °F 80% 30.27 in 10.0 mi West 10.4 mph - N/A   Clear
10:15 PM 21.2 °F 10.9 °F 15.8 °F 80% 30.27 in 10.0 mi West 9.2 mph - N/A   Clear
10:35 PM 19.4 °F 8.6 °F 14.0 °F 80% 30.27 in 10.0 mi West 9.2 mph - N/A   Clear
10:55 PM 19.4 °F 8.6 °F 14.0 °F 80% 30.27 in 10.0 mi West 9.2 mph - N/A   Clear
11:15 PM 19.4 °F 8.6 °F 15.8 °F 86% 30.27 in 10.0 mi West 9.2 mph - N/A   Clear
11:35 PM 17.6 °F 6.4 °F 14.0 °F 86% 30.27 in 10.0 mi WSW 9.2 mph - N/A   Clear
11:55 PM 19.4 °F 8.6 °F 15.8 °F 86% 30.26 in 10.0 mi WSW 9.2 mph - N/A   Clear